Weather History for KHWY - February, 2014

Change the Weather History Date:

Sunday, February 9, 2014

  Actual Average (KHEF) Record (KHEF)
Temperature  
Mean Temperature 32 °F -  
Max Temperature 36 °F 44 °F 69 °F (2001)
Min Temperature 26 °F 24 °F 5 °F (2003)
Degree Days  
Heating Degree Days 33    
Moisture  
Dew Point 30 °F    
Average Humidity 90    
Maximum Humidity 100    
Minimum Humidity 74    
Precipitation  
Precipitation 0.00 in - - ()
Sea Level Pressure  
Sea Level Pressure 30.09 in    
Wind  
Wind Speed 2 mph (SE)    
Max Wind Speed 8 mph    
Max Gust Speed -    
Visibility 9 miles    
Events Rain , Snow    
Averages and records for this station are not official NWS values.
T = Trace of Precipitation, MM = Missing Value Source: NWS Daily Summary

Daily Weather History Graph

Daily Weather History Graph

Search for Another Location

Airport or City:

Trip Planner

Search our weather history database for the weather conditions in past years. The results will help you decide how hot, cold, wet, or windy it might be!

Date:

Astronomy

Feb. 09, 2014 Rise Set
Actual Time 7:08 AM EST 5:42 PM EST
Civil Twilight 6:41 AM EST 6:09 PM EST
Nautical Twilight 6:09 AM EST 6:40 PM EST
Astronomical Twilight 5:38 AM EST 7:11 PM EST
Moon 1:21 PM EST (2/9) 3:10 AM EST (2/9)
Length of Visible Light 11h 28m
Length of Day
10h 33m
Waxing Gibbous, 77% of the Moon is Illuminated
Feb 9
Waxing Gibbous
Feb 14
Full
Feb 22
Last Quarter
Mar 1
New
Mar 8
First Quarter

Hourly Weather History & Observations

Time (EST) Temp. Windchill Dew Point Humidity Pressure Visibility Wind Dir Wind Speed Gust Speed Precip Events Conditions
12:15 AM 28.0 °F - 28.0 °F 100% 30.18 in 10.0 mi Calm Calm - N/A   Overcast
12:35 AM 28.8 °F - 28.6 °F 99% 30.18 in 10.0 mi Calm Calm - N/A   Overcast
12:55 AM 28.9 °F - 28.9 °F 100% 30.18 in 10.0 mi Calm Calm - N/A   Overcast
1:15 AM 29.3 °F - 28.8 °F 98% 30.18 in 10.0 mi Calm Calm - N/A   Overcast
1:35 AM 29.1 °F - 29.1 °F 100% 30.18 in 7.0 mi Calm Calm - N/A   Overcast
1:55 AM 29.5 °F - 29.3 °F 99% 30.18 in 10.0 mi Calm Calm - N/A   Overcast
2:15 AM 29.8 °F - 29.3 °F 98% 30.18 in 10.0 mi Calm Calm - N/A   Overcast
2:35 AM 29.8 °F - 29.3 °F 98% 30.18 in 7.0 mi Calm Calm - N/A   Overcast
2:55 AM 29.8 °F - 29.3 °F 98% 30.17 in 7.0 mi Calm Calm - N/A   Overcast
3:15 AM 29.7 °F - 29.1 °F 98% 30.17 in 10.0 mi Calm Calm - N/A   Overcast
3:35 AM 29.7 °F - 28.9 °F 97% 30.17 in 10.0 mi Calm Calm - N/A   Overcast
3:55 AM 29.3 °F - 28.9 °F 99% 30.17 in 7.0 mi Calm Calm - N/A   Overcast
4:15 AM 29.5 °F - 29.1 °F 99% 30.18 in 7.0 mi Calm Calm - N/A   Overcast
4:35 AM 29.7 °F 26.1 °F 29.1 °F 98% 30.18 in 7.0 mi NNE 3.5 mph - N/A   Overcast
4:55 AM 29.7 °F 26.1 °F 28.9 °F 97% 30.17 in 7.0 mi NNE 3.5 mph - N/A   Overcast
5:15 AM 29.3 °F - 28.9 °F 99% 30.17 in 7.0 mi Calm Calm - N/A   Overcast
5:35 AM 29.3 °F - 28.9 °F 99% 30.17 in 7.0 mi Calm Calm - N/A   Overcast
5:55 AM 29.3 °F 25.6 °F 28.6 °F 97% 30.16 in 7.0 mi NE 3.5 mph - N/A   Overcast
6:15 AM 29.3 °F - 28.8 °F 98% 30.16 in 7.0 mi Calm Calm - N/A   Overcast
6:35 AM 29.3 °F 25.6 °F 28.4 °F 96% 30.16 in 10.0 mi NE 3.5 mph - N/A   Overcast
6:55 AM 29.3 °F - 28.4 °F 96% 30.16 in 10.0 mi Calm Calm - N/A   Overcast
7:15 AM 29.3 °F - 28.2 °F 96% 30.17 in 10.0 mi Calm Calm - N/A   Overcast
7:35 AM 29.3 °F - 28.2 °F 96% 30.17 in 10.0 mi Calm Calm - N/A   Overcast
7:55 AM 29.7 °F - 28.0 °F 94% 30.18 in 10.0 mi Calm Calm - N/A   Overcast
8:15 AM 30.0 °F - 28.2 °F 93% 30.19 in 10.0 mi Calm Calm - N/A   Overcast
8:35 AM 30.2 °F - 28.6 °F 94% 30.19 in 10.0 mi Calm Calm - N/A   Overcast
8:55 AM 30.6 °F - 28.4 °F 92% 30.18 in 10.0 mi Calm Calm - N/A   Overcast
9:15 AM 31.1 °F 27.7 °F 28.9 °F 92% 30.17 in 10.0 mi ESE 3.5 mph - N/A   Overcast
9:35 AM 32.0 °F 27.5 °F 28.4 °F 87% 30.16 in 10.0 mi ESE 4.6 mph - N/A   Mostly Cloudy
9:55 AM 33.1 °F 26.9 °F 28.0 °F 82% 30.14 in 10.0 mi SE 6.9 mph - N/A   Scattered Clouds
10:15 AM 33.4 °F 26.6 °F 27.3 °F 78% 30.13 in 10.0 mi SE 8.1 mph - N/A   Clear
10:35 AM 34.2 °F 27.5 °F 27.3 °F 76% 30.13 in 10.0 mi SE 8.1 mph - N/A   Mostly Cloudy
10:55 AM 34.9 °F 30.8 °F 27.5 °F 74% 30.12 in 10.0 mi South 4.6 mph - N/A   Overcast
11:15 AM 34.7 °F 29.6 °F 27.9 °F 76% 30.11 in 10.0 mi SSE 5.8 mph - N/A   Overcast
11:35 AM 35.2 °F 31.2 °F 28.4 °F 76% 30.11 in 10.0 mi South 4.6 mph - N/A   Overcast
11:55 AM 35.1 °F 31.0 °F 28.0 °F 76% 30.10 in 10.0 mi SSE 4.6 mph - N/A   Overcast
12:15 PM 35.2 °F 30.3 °F 28.0 °F 75% 30.08 in 10.0 mi SSE 5.8 mph - N/A   Overcast
12:35 PM 35.6 °F 32.8 °F 28.4 °F 75% 30.08 in 10.0 mi South 3.5 mph - N/A   Overcast
12:55 PM 35.2 °F 32.4 °F 28.0 °F 75% 30.07 in 10.0 mi SSE 3.5 mph - N/A   Overcast
1:15 PM 35.2 °F 31.2 °F 28.6 °F 77% 30.05 in 10.0 mi South 4.6 mph - N/A   Overcast
1:35 PM 35.4 °F 31.5 °F 28.8 °F 77% 30.04 in 10.0 mi SSW 4.6 mph - N/A   Overcast
1:55 PM 35.6 °F 30.7 °F 29.3 °F 78% 30.03 in 10.0 mi SSE 5.8 mph - N/A   Overcast
2:15 PM 34.7 °F 30.6 °F 30.9 °F 86% 30.00 in 5.0 mi SSE 4.6 mph - N/A   Drizzle
2:35 PM 34.9 °F 30.8 °F 30.9 °F 85% 29.99 in 10.0 mi SE 4.6 mph - N/A   Overcast
2:55 PM 35.6 °F 31.7 °F 30.6 °F 82% 29.98 in 10.0 mi SSE 4.6 mph - N/A   Overcast
3:15 PM 35.8 °F 30.9 °F 30.7 °F 82% 29.99 in 10.0 mi SSW 5.8 mph - N/A   Overcast
3:35 PM 35.8 °F 31.9 °F 31.1 °F 83% 30.00 in 10.0 mi SSW 4.6 mph - N/A   Overcast
3:55 PM 35.2 °F 32.4 °F 32.0 °F 88% 29.99 in 4.0 mi South 3.5 mph - N/A Snow Snow
4:15 PM 35.6 °F - 32.0 °F 87% 29.98 in 7.0 mi Calm Calm - N/A Rain Light Rain
4:35 PM 36.1 °F - 32.0 °F 85% 29.98 in 10.0 mi Calm Calm - N/A   Overcast
4:55 PM 36.0 °F 32.1 °F 31.8 °F 85% 29.98 in 10.0 mi South 4.6 mph - N/A   Overcast
5:15 PM 35.8 °F - 31.6 °F 85% 29.98 in 10.0 mi Calm Calm - N/A   Overcast
5:35 PM 35.8 °F 33.0 °F 31.5 °F 84% 29.98 in 10.0 mi SSE 3.5 mph - N/A   Overcast
5:55 PM 35.6 °F - 31.5 °F 85% 29.98 in 10.0 mi Calm Calm - N/A   Overcast
6:15 PM 35.6 °F - 31.5 °F 85% 29.98 in 10.0 mi Calm Calm - N/A   Overcast
6:35 PM 35.2 °F - 31.6 °F 87% 29.98 in 10.0 mi Calm Calm - N/A   Overcast
6:55 PM 35.6 °F - 31.8 °F 86% 29.98 in 10.0 mi Calm Calm - N/A   Overcast
7:15 PM 34.7 °F 29.6 °F 32.9 °F 93% 29.99 in 10.0 mi NNW 5.8 mph - N/A   Overcast
7:35 PM 35.2 °F 31.2 °F 32.0 °F 88% 30.01 in 10.0 mi North 4.6 mph - N/A   Overcast
7:55 PM 35.2 °F 31.2 °F 32.2 °F 89% 30.02 in 10.0 mi North 4.6 mph - N/A   Overcast
8:15 PM 35.1 °F 32.2 °F 32.4 °F 90% 30.02 in 10.0 mi NE 3.5 mph - N/A   Overcast
8:35 PM 34.7 °F 31.8 °F 32.2 °F 91% 30.03 in 10.0 mi North 3.5 mph - N/A   Overcast
8:55 PM 34.0 °F - 32.0 °F 92% 30.04 in 10.0 mi Calm Calm - N/A   Mostly Cloudy
9:15 PM 31.8 °F - 30.9 °F 96% 30.04 in 10.0 mi Calm Calm - N/A   Scattered Clouds
9:35 PM 31.1 °F - 30.9 °F 99% 30.04 in 10.0 mi Calm Calm - N/A   Mostly Cloudy
9:55 PM 31.6 °F 27.0 °F 31.1 °F 98% 30.04 in 10.0 mi NNE 4.6 mph - N/A   Scattered Clouds
10:15 PM 31.5 °F 25.8 °F 31.1 °F 99% 30.04 in 10.0 mi NE 5.8 mph - N/A   Scattered Clouds
10:35 PM 31.6 °F 26.0 °F 31.1 °F 98% 30.04 in 7.0 mi NNE 5.8 mph - N/A   Scattered Clouds
10:55 PM 31.5 °F 28.1 °F 31.1 °F 99% 30.04 in 7.0 mi North 3.5 mph - N/A   Clear
11:15 PM 31.3 °F - 31.1 °F 99% 30.04 in 7.0 mi Calm Calm - N/A   Clear
11:35 PM 29.3 °F - 29.3 °F 100% 30.04 in 7.0 mi Calm Calm - N/A   Scattered Clouds
11:55 PM 26.8 °F - 26.8 °F 100% 30.04 in 5.0 mi Calm Calm - N/A   Clear